Location: Clatteringshaws Loch
(55.0508°N, 4.2860°W)
Time: 14:42:58
(UTC+00:00)

SR - Visible Passes

Search period start: 14 February 2016 00:00
Search period end: 24 February 2016 00:00
Orbit: 575 x 884 km, 66.7° (Epoch: 14 February)

Date Brightness Start Highest point End Pass type
(mag) Time Alt. Az. Time Alt. Az. Time Alt. Az.
14 Feb ? 18:07:17 10° WSW 18:13:13 65° NW 18:19:03 10° NE visible
14 Feb ? 19:51:09 10° W 19:56:22 30° NNW 19:59:49 18° NNE visible
14 Feb ? 21:35:15 10° NW 21:39:15 25° N 21:39:15 25° N visible
14 Feb ? 23:18:07 10° NW 23:18:41 13° NW 23:18:41 13° NW visible
15 Feb ? 19:01:12 10° W 19:06:41 37° NNW 19:11:58 10° NE visible
15 Feb ? 20:45:28 10° WNW 20:50:21 26° N 20:51:24 24° NNE visible
15 Feb ? 22:28:46 10° NW 22:30:51 20° NNW 22:30:51 20° NNW visible
16 Feb ? 18:11:21 10° WSW 18:17:07 48° NW 18:22:45 10° NE visible
16 Feb ? 19:55:33 10° WNW 20:00:33 27° N 20:03:33 18° NNE visible
16 Feb ? 21:39:18 10° NW 21:42:59 26° N 21:42:59 26° N visible
16 Feb ? 23:21:53 10° NW 23:22:25 13° NW 23:22:25 13° NW visible
17 Feb ? 19:05:34 10° W 19:10:47 31° NNW 19:15:40 11° NE visible
17 Feb ? 20:49:41 10° NW 20:54:34 26° N 20:55:07 26° NNE visible
17 Feb ? 22:32:35 10° NW 22:34:33 21° NNW 22:34:33 21° NNW visible
18 Feb ? 18:15:36 10° W 18:21:07 37° NNW 18:26:27 10° NE visible
18 Feb ? 19:59:54 10° WNW 20:04:45 26° N 20:07:14 19° NE visible
18 Feb ? 21:43:13 10° NW 21:46:40 28° NNW 21:46:40 28° NNW visible
18 Feb ? 23:25:37 10° NW 23:26:07 12° NW 23:26:07 12° NW visible
19 Feb ? 19:09:58 10° WNW 19:14:57 27° N 19:19:21 12° NE visible
19 Feb ? 20:53:45 10° NW 20:58:44 29° NNE 20:58:48 29° NNE visible
19 Feb ? 22:36:20 10° NW 22:38:14 21° NW 22:38:14 21° NW visible
20 Feb ? 18:19:58 10° W 18:25:12 31° NNW 18:30:15 10° NE visible
20 Feb ? 20:04:07 10° NW 20:08:57 26° N 20:10:55 22° NE visible
20 Feb ? 21:47:02 10° NW 21:50:21 30° NNW 21:50:21 30° NNW visible
20 Feb ? 23:29:24 10° NW 23:29:47 12° NW 23:29:47 12° NW visible
21 Feb ? 19:14:19 10° WNW 19:19:09 26° N 19:23:02 13° NE visible
21 Feb ? 20:57:39 10° NW 21:02:28 33° NNE 21:02:28 33° NNE visible
21 Feb ? 22:40:04 10° NW 22:41:54 21° NW 22:41:54 21° NW visible
22 Feb ? 18:24:22 10° WNW 18:29:21 27° N 18:34:08 10° NE visible
22 Feb ? 20:08:10 10° NW 20:13:08 28° NNE 20:14:35 25° NE visible
22 Feb ? 21:50:46 10° NW 21:54:02 33° NNW 21:54:02 33° NNW visible
22 Feb ? 23:33:17 10° NW 23:33:28 11° NW 23:33:28 11° NW visible
23 Feb ? 19:18:31 10° NW 19:23:21 26° N 19:26:44 15° NE visible
23 Feb ? 21:01:27 10° NW 21:06:10 40° N 21:06:10 40° N visible
23 Feb ? 22:43:50 10° NW 22:45:36 20° NW 22:45:36 20° NW visible
